Regional Weather Roundup
Issued by NWS Nashville, TN

Current Version | Previous Version | Text Only | Print | Product List | Glossary Off
Versions: 1 2 3 4 5 6 7 8 9 10 11 12 13 14 15 16 17 18 19 20 21 22 23 24 25 26 27 28 29 30 31 32 33 34 35 36 37 38 39 40 41 42 43 44 45 46 47 48 49 50

066
ASUS44 KOHX 021310
RWROHX
MIDDLE TENNESSEE HOURLY WEATHER ROUNDUP
NATIONAL WEATHER SERVICE NASHVILLE TN
800 AM CDT MON MAY 02 2016

NOTE: "FAIR" INDICATES FEW OR NO CLOUDS BELOW 12,000 FEET WITH
NO SIGNIFICANT WEATHER AND/OR OBSTRUCTIONS TO VISIBILITY.

* THESE REPORTS ARE NOT UNDER NWS QUALITY CONTROL AND MAY NOT
  REPORT WEATHER SUCH AS PRECIPITATION AND FOG.


TNZ005>011-023>034-057-059-062>066-078-080-021400
...NORTHERN MIDDLE TENNESSEE...

CITY           SKY/WX    TMP DP  RH WIND       PRES   REMARKS
CLARKSVILLE    PTSUNNY   60  52  74 N8        30.02F
CROSSVILLE     CLOUDY    65  59  81 S3        30.05S
NASHVILLE      CLOUDY    64  52  64 NE7       30.00F
SMYRNA         CLOUDY    63  57  80 N6        30.01F
SPARTA         CLOUDY    68  63  83 CALM      30.01S
$$
TNZ056-058-060-061-075>077-079-093>097-021400
...SOUTHERN MIDDLE TENNESSEE...

CITY           SKY/WX    TMP DP  RH WIND       PRES   REMARKS
COLUMBIA       CLOUDY   N/A N/A N/A CALM      29.97S
FAYETTEVILLE   MOSUNNY   66  63  88 S7        30.01S
MCMINNVILLE    CLOUDY    66  66 100 CALM      30.01S
SHELBYVILLE    CLOUDY    66  64  94 CALM      30.01S
TULLAHOMA      PTSUNNY   64  64 100 S5        30.02S
WINCHESTER     PTSUNNY   64  63  94 SE5       30.02S
$$


...KEY TO REMARKS...
VSB - VISIBILITY IN MILES
WCI - WIND CHILL INDEX
HX  - HEAT INDEX





USA.gov is the U.S. government's official web portal to all federal, state and local government web resources and services.